TimeEDT,TemperatureF,Dew PointF,Humidity,Sea Level PressureIn,VisibilityMPH,Wind Direction,Wind SpeedMPH,Gust SpeedMPH,PrecipitationIn,Events,Conditions,WindDirDegrees,DateUTC
12:05 AM,53.6,51.8,94,30.14,8.0,ESE,8.1,-,N/A,,Overcast,110,2013-04-30 04:05:00
12:53 AM,54.0,51.1,90,30.15,9.0,ESE,9.2,-,N/A,,Overcast,110,2013-04-30 04:53:00
1:53 AM,54.0,51.1,90,30.15,5.0,East,4.6,-,N/A,,Overcast,90,2013-04-30 05:53:00
2:31 AM,53.6,51.8,94,30.14,6.0,East,4.6,-,0.00,Rain,Light Rain,90,2013-04-30 06:31:00
2:53 AM,54.0,51.1,90,30.14,6.0,East,5.8,-,0.00,,Overcast,90,2013-04-30 06:53:00
3:20 AM,53.6,51.8,94,30.14,2.0,East,6.9,-,N/A,,Overcast,80,2013-04-30 07:20:00
3:27 AM,53.6,51.8,94,30.14,1.8,East,6.9,-,0.00,Rain,Light Rain,90,2013-04-30 07:27:00
3:42 AM,53.6,51.8,94,30.14,2.0,East,6.9,-,0.01,Rain,Light Rain,80,2013-04-30 07:42:00
3:53 AM,53.1,51.1,93,30.14,3.0,East,8.1,-,0.01,Rain,Light Rain,80,2013-04-30 07:53:00
4:53 AM,53.1,51.1,93,30.16,8.0,East,9.2,-,N/A,,Overcast,90,2013-04-30 08:53:00
5:53 AM,53.1,51.1,93,30.17,8.0,East,10.4,-,N/A,,Overcast,80,2013-04-30 09:53:00
6:53 AM,52.0,48.9,89,30.20,5.0,East,11.5,-,N/A,,Overcast,80,2013-04-30 10:53:00
7:53 AM,52.0,48.9,89,30.22,3.0,East,9.2,-,0.00,Rain,Light Rain,80,2013-04-30 11:53:00
8:09 AM,51.8,48.2,88,30.23,2.5,East,8.1,-,0.00,Rain,Light Rain,80,2013-04-30 12:09:00
8:12 AM,51.8,48.2,88,30.23,3.0,East,9.2,-,0.00,Rain,Light Rain,80,2013-04-30 12:12:00
8:40 AM,51.8,50.0,94,30.24,5.0,East,9.2,-,0.00,,Overcast,80,2013-04-30 12:40:00
8:53 AM,52.0,48.9,89,30.24,6.0,East,8.1,-,0.00,,Overcast,80,2013-04-30 12:53:00
9:53 AM,55.9,50.0,80,30.24,10.0,East,10.4,-,N/A,,Overcast,90,2013-04-30 13:53:00
10:04 AM,57.2,50.0,77,30.23,10.0,East,8.1,-,N/A,,Overcast,80,2013-04-30 14:04:00
10:53 AM,57.0,50.0,77,30.24,10.0,ENE,8.1,-,N/A,,Overcast,70,2013-04-30 14:53:00
11:36 AM,60.8,51.8,72,30.23,10.0,ESE,8.1,-,N/A,,Mostly Cloudy,110,2013-04-30 15:36:00
11:53 AM,63.0,52.0,67,30.22,10.0,East,12.7,18.4,N/A,,Mostly Cloudy,100,2013-04-30 15:53:00
12:04 PM,62.6,50.0,63,30.23,10.0,ENE,12.7,-,N/A,,Overcast,70,2013-04-30 16:04:00
12:53 PM,63.0,50.0,63,30.22,10.0,ESE,9.2,-,N/A,,Overcast,110,2013-04-30 16:53:00
1:53 PM,64.0,48.0,56,30.22,10.0,ESE,12.7,-,N/A,,Overcast,120,2013-04-30 17:53:00
2:53 PM,66.9,48.9,52,30.22,10.0,ESE,8.1,19.6,N/A,,Mostly Cloudy,110,2013-04-30 18:53:00
3:53 PM,66.0,48.9,54,30.22,10.0,ENE,8.1,-,N/A,,Overcast,70,2013-04-30 19:53:00
4:53 PM,66.9,48.0,51,30.22,10.0,East,6.9,-,N/A,,Overcast,90,2013-04-30 20:53:00
5:53 PM,66.0,46.0,48,30.22,10.0,East,10.4,-,N/A,,Overcast,100,2013-04-30 21:53:00
6:53 PM,64.9,46.0,50,30.24,10.0,ESE,8.1,-,N/A,,Mostly Cloudy,110,2013-04-30 22:53:00
7:53 PM,57.9,44.1,60,30.25,10.0,ESE,6.9,-,N/A,,Partly Cloudy,110,2013-04-30 23:53:00
8:53 PM,55.0,42.1,62,30.27,10.0,ESE,4.6,-,N/A,,Clear,110,2013-05-01 00:53:00
9:53 PM,51.1,39.9,66,30.29,10.0,ENE,3.5,-,N/A,,Clear,60,2013-05-01 01:53:00
10:53 PM,48.9,36.0,61,30.30,10.0,East,5.8,-,N/A,,Clear,80,2013-05-01 02:53:00